IZ5TJI-3 Weather Reports


time (UTC)temp
C
wind
direction
speed
KPH
gust
KPH
rain 1hr
cm
rain 24hr
cm
rain mn
cm
humidity
%
barometer
mb
20260906105842 32 112 0.0 0.0 0.00 0.00 0.00 49 1017.6
20260906104342 32 202 0.0 3.2 0.00 0.00 0.00 51 1017.8
20260906102842 31 337 0.0 6.4 0.00 0.00 0.00 53 1018.0
20260906101342 31 135 1.6 3.2 0.00 0.00 0.00 52 1017.9
20260906095842 30 315 0.0 0.0 0.00 0.00 0.00 55 1018.1
20260906094342 30 0 3.2 3.2 0.00 0.00 0.00 56 1018.2
20260906092842 30 135 0.0 1.6 0.00 0.00 0.00 57 1018.2
20260906091342 29 135 1.6 1.6 0.00 0.00 0.00 59 1018.4
20260906085842 28 202 0.0 0.0 0.00 0.00 0.00 64 1018.4
20260906084342 27 337 3.2 3.2 0.00 0.00 0.00 66 1018.3
20260906082842 26 180 3.2 3.2 0.00 0.00 0.00 68 1018.5
20260906081342 26 180 0.0 1.6 0.00 0.00 0.00 70 1018.3
20260906075842 25 90 0.0 1.6 0.00 0.00 0.00 71 1018.3
20260906074342 24 135 0.0 0.0 0.00 0.00 0.00 74 1018.4
20260906072842 23 180 0.0 0.0 0.00 0.00 0.00 76 1018.1
20260906071342 22 112 0.0 0.0 0.00 0.00 0.00 79 1018.0
20260906065842 22 315 0.0 0.0 0.00 0.00 0.00 81 1017.9
20260906064342 21 270 0.0 0.0 0.00 0.00 0.00 83 1017.9
20260906062842 20 202 0.0 0.0 0.00 0.00 0.00 86 1017.8
20260906061342 19 157 0.0 4.8 0.00 0.00 0.00 87 1017.6
20260906055918 18 225 0.0 0.0 0.00 0.00 0.00 88 1017.6
20260906055842 18 225 0.0 0.0 0.00 0.00 0.00 88 1017.6
20260906054342 18 67 0.0 0.0 0.00 0.00 0.00 88 1017.3
20260906052842 17 67 0.0 0.0 0.00 0.00 0.00 90 1017.3
20260906051342 17 90 0.0 0.0 0.00 0.00 0.00 90 1017.3
20260906045842 17 67 0.0 0.0 0.00 0.00 0.00 90 1017.3
20260906044342 17 67 0.0 0.0 0.00 0.00 0.00 90 1017.2
20260906042842 17 67 0.0 0.0 0.00 0.00 0.00 89 1017.2
20260906041342 17 45 0.0 0.0 0.00 0.00 0.00 90 1017.2
20260906035843 17 45 0.0 0.0 0.00 0.00 0.00 89 1017.0
20260906034343 17 45 0.0 0.0 0.00 0.00 0.00 89 1017.2
20260906032843 17 45 0.0 0.0 0.00 0.00 0.00 88 1017.1
20260906031343 17 45 0.0 0.0 0.00 0.00 0.00 88 1017.0
20260906025843 17 45 0.0 0.0 0.00 0.00 0.00 88 1016.9
20260906024343 18 45 0.0 0.0 0.00 0.00 0.00 88 1016.8
20260906022843 18 45 0.0 0.0 0.00 0.00 0.00 88 1016.8
20260906021343 18 45 0.0 0.0 0.00 0.00 0.00 88 1016.9
20260906015843 18 45 0.0 0.0 0.00 0.00 0.00 88 1017.1
20260906014343 18 45 0.0 0.0 0.00 0.00 0.00 88 1016.9
20260906012843 18 135 0.0 0.0 0.00 0.00 0.00 87 1016.9
20260906011343 18 135 0.0 0.0 0.00 0.00 0.00 87 1016.9
20260906005843 18 135 0.0 0.0 0.00 0.00 0.00 87 1016.8
20260906004343 18 202 0.0 0.0 0.00 0.00 0.00 87 1016.9
20260906002843 18 90 0.0 0.0 0.00 0.00 0.00 86 1016.8
20260906001343 18 22 0.0 0.0 0.00 0.00 0.00 86 1016.9
20260905235843 18 22 0.0 0.0 0.00 0.00 0.00 86 1016.9
20260905234343 18 22 0.0 0.0 0.00 0.00 0.00 84 1016.9
20260905232843 19 22 0.0 0.0 0.00 0.00 0.00 84 1017.0
20260905231343 19 22 0.0 0.0 0.00 0.00 0.00 84 1017.0
20260905225843 20 22 0.0 0.0 0.00 0.00 0.00 83 1017.1
20260905224343 20 22 0.0 0.0 0.00 0.00 0.00 83 1017.0
20260905222843 20 22 0.0 0.0 0.00 0.00 0.00 81 1016.8
20260905221343 20 22 0.0 0.0 0.00 0.00 0.00 81 1016.8
20260905215843 20 292 0.0 0.0 0.00 0.00 0.00 80 1016.8
20260905214343 20 22 0.0 0.0 0.00 0.00 0.00 79 1016.7
20260905212843 21 22 0.0 0.0 0.00 0.00 0.00 78 1016.6
20260905211343 21 22 0.0 0.0 0.00 0.00 0.00 78 1016.6
20260905205843 21 0 0.0 9.7 0.00 0.00 0.00 78 1016.4
20260905204343 21 337 0.0 8.0 0.00 0.00 0.00 78 1016.4
20260905202843 22 22 4.8 6.4 0.00 0.00 0.00 77 1016.5
20260905201418 22 0 0.0 4.8 0.00 0.00 0.00 75 1016.3
20260905201343 22 0 0.0 4.8 0.00 0.00 0.00 75 1016.3
20260905195843 22 0 0.0 0.0 0.00 0.00 0.00 74 1016.2
20260905194343 22 225 0.0 0.0 0.00 0.00 0.00 71 1016.2
20260905192843 23 225 0.0 0.0 0.00 0.00 0.00 69 1016.1
20260905191343 23 225 0.0 0.0 0.00 0.00 0.00 67 1016.0
20260905185843 24 225 0.0 0.0 0.00 0.00 0.00 65 1015.9
20260905184422 25 225 0.0 0.0 0.00 0.00 0.00 63 1015.8
20260905184343 25 225 0.0 0.0 0.00 0.00 0.00 63 1015.8
20260905182843 25 247 0.0 0.0 0.00 0.00 0.00 62 1015.6
20260905181343 26 247 4.8 8.0 0.00 0.00 0.00 61 1015.3
20260905175843 26 247 8.0 8.0 0.00 0.00 0.00 60 1015.3
20260905174343 27 270 4.8 4.8 0.00 0.00 0.00 60 1015.1
20260905172843 27 247 9.7 9.7 0.00 0.00 0.00 58 1014.9
20260905171343 28 247 6.4 6.4 0.00 0.00 0.00 57 1014.9
20260905165843 28 225 0.0 8.0 0.00 0.00 0.00 56 1014.8
20260905164343 28 247 11.3 17.7 0.00 0.00 0.00 55 1014.8
20260905162843 29 202 12.9 12.9 0.00 0.00 0.00 51 1014.7
20260905161344 30 247 8.0 9.7 0.00 0.00 0.00 49 1014.8
20260905155844 30 247 9.7 9.7 0.00 0.00 0.00 51 1014.7
20260905154344 30 247 3.2 6.4 0.00 0.00 0.00 50 1014.6
20260905152844 30 202 9.7 17.7 0.00 0.00 0.00 50 1014.3
20260905151344 30 247 11.3 11.3 0.00 0.00 0.00 49 1014.6
20260905145844 30 270 6.4 6.4 0.00 0.00 0.00 47 1014.6
20260905144344 31 225 8.0 12.9 0.00 0.00 0.00 45 1014.6
20260905142844 31 270 11.3 11.3 0.00 0.00 0.00 46 1014.7
20260905141344 31 225 12.9 12.9 0.00 0.00 0.00 46 1014.9
20260905135844 31 180 6.4 6.4 0.00 0.00 0.00 45 1014.9
20260905134344 31 225 8.0 8.0 0.00 0.00 0.00 45 1015.1
20260905132844 31 270 11.3 12.9 0.00 0.00 0.00 46 1015.2
20260905131344 31 202 9.7 9.7 0.00 0.00 0.00 47 1015.4
20260905125844 31 225 4.8 9.7 0.00 0.00 0.00 48 1015.6
20260905124344 31 270 9.7 12.9 0.00 0.00 0.00 48 1015.7
20260905122844 30 270 6.4 12.9 0.00 0.00 0.00 50 1015.7
20260905121344 30 180 0.0 9.7 0.00 0.00 0.00 52 1015.9
20260905115844 30 202 1.6 12.9 0.00 0.00 0.00 55 1016.0
20260905114344 30 270 3.2 6.4 0.00 0.00 0.00 54 1016.2
20260905112844 30 225 8.0 8.0 0.00 0.00 0.00 56 1016.3
20260905111344 29 292 12.9 12.9 0.00 0.00 0.00 58 1016.4